This is the latest recevied weather packets stored in our database for station/object KB1RMA-13. If no packets are shown the sender has not sent any weather packets the latest 10 day(s).
| Time | Temp. | Humidity | Pressure | Rain* | Wind** | Luminosity | Snow |
|---|---|---|---|---|---|---|---|
| 1778022484 | 22.78° C | 49% | 1005.7 hPa | 0 mm | - | 39 W/m² | - |
| 1778022181 | 23.33° C | 49% | 1005.7 hPa | 0 mm | - | 45 W/m² | - |
| 1778021878 | 23.33° C | 49% | 1005.5 hPa | 0 mm | - | 60 W/m² | - |
| 1778021575 | 23.33° C | 48% | 1005.6 hPa | 0 mm | - | 71 W/m² | - |
| 1778021269 | 23.89° C | 48% | 1005.4 hPa | 0 mm | - | 81 W/m² | - |
| 1778020968 | 23.89° C | 47% | 1005.1 hPa | 0 mm | - | 93 W/m² | - |
| 1778020665 | 23.89° C | 47% | 1005.2 hPa | 0 mm | - | 102 W/m² | - |
| 1778020361 | 23.33° C | 49% | 1005 hPa | 0 mm | - | 107 W/m² | - |
| 1778020057 | 23.33° C | 50% | 1004.8 hPa | 0 mm | - | 115 W/m² | - |
| 1778019753 | 23.33° C | 49% | 1004.9 hPa | 0 mm | - | 108 W/m² | - |
| 1778019451 | 23.33° C | 49% | 1004.9 hPa | 0 mm | - | 110 W/m² | - |
| 1778019147 | 23.33° C | 49% | 1004.7 hPa | 0 mm | - | 113 W/m² | - |
| 1778018844 | 23.33° C | 50% | 1004.9 hPa | 0 mm | - | 113 W/m² | - |
| 1778018542 | 22.78° C | 50% | 1004.8 hPa | 0 mm | - | 135 W/m² | - |
| 1778018240 | 22.78° C | 51% | 1004.9 hPa | 0 mm | - | 144 W/m² | - |
| 1778017937 | 23.33° C | 50% | 1004.7 hPa | 0 mm | - | 127 W/m² | - |
| 1778017635 | 23.33° C | 50% | 1004.8 hPa | 0 mm | - | 158 W/m² | - |
| 1778017332 | 23.33° C | 50% | 1004.8 hPa | 0 mm | - | 171 W/m² | - |
| 1778017029 | 23.33° C | 50% | 1004.7 hPa | 0 mm | - | 238 W/m² | - |
| 1778016726 | 22.78° C | 51% | 1004.6 hPa | 0 mm | - | 181 W/m² | - |
| 1778016422 | 22.78° C | 52% | 1004.5 hPa | 0 mm | - | 215 W/m² | - |
| 1778016120 | 23.33° C | 52% | 1004.7 hPa | 0 mm | - | 235 W/m² | - |
| 1778015817 | 23.89° C | 48% | 1004.4 hPa | 0 mm | - | 319 W/m² | - |
| 1778015514 | 23.89° C | 48% | 1004.4 hPa | 0 mm | - | 287 W/m² | - |
| 1778015211 | 24.44° C | 48% | 1004.3 hPa | 0 mm | - | 259 W/m² | - |
* Rain latest hour (hover to see other rain measurements)
** Current wind speed in m/s (hover to see current wind gust speed)